Location: *
(28.3744°N, 81.5492°W)
Time: 03:29:16
(UTC+00:00)

Atlas Centaur 2 - Pass Details

Date: 15 June 2025
Orbit: 456 x 1256 km, 30.4° (Epoch: 11 July)

Event Time Altitude Azimuth Distance (km) Brightness Sun altitude
Exits shadow 06:28:56 24° 102° (ESE) 2,337 4.4 -36.2°
Drops below altitude 10° 06:32:16 10° 87° (E) 3,226 5.4 -35.9°
Sets 06:35:27 0° 79° (E) 4,190 6.1 -35.7°
